Погода в Любашевке

Погода в Любашевке : погода сейчас, прогноз погоды и архив. Всё, что Вы хотите узнать о погоде в Любашевке!

Хотите узнать прогноз погоды в Любашевке? Тогда Вам сюда: Погода в Любашевке

Поиск расширенной информации на нашем сайте:

Полезная информация: Схемы вышивки рушника на иконы.

Другие новости

Новости СМИ2

Главная страница сайта

Новости сайта

02.10.2013

Напоминаем, что на нашем новом сайте вы можете получить высокодетализированные прогнозы погоды по пунктам России, СНГ и мира (включающие важные для авиации метеовеличины, такие как направление и скорость ветра, видимость, явления погоды, количество и форма облачности, нижняя и верхняя граница облачности), а также ознакомиться с разнообразными материалами по авиационной метеорологии и подборкой полезных ссылок на эту тему.

Сайт Метеоцентр.Азия посвящён разработке технологий оптимизации авиаметеорологического обслуживания, включая проектирование и перспективное создание нескольких автоматизированных авиаметеорологических систем:
- система выпуска высокодетальных прогностических карт явлений погоды для нижнего воздушного пространства по России и ближнему зарубежью;
- система верификации прогнозов TAF (выпускаемых синоптиками официальных АМСГ РФ и ближнего зарубежья) и AUTOTAF (выпускаемых сайтом Метеоцентр.Азия) - выявление ошибок, онлайн-сопоставление с фактической погодой METAR, автоматическое внесение коррективов в прогнозы при резком отклонении фактической погоды от прогноза, подсчёт оправдываемости прогнозов по элементам и в целом;
- система обработки, анализа и отображения авиаметеорологической информации для применения провайдерами метеорологической информации.

Рекомендуем: Официальный сайт янган-тау yangantau.putevka-perm.ru.

Погода в Любашевке - сегодня

Время (UTC), дата Ветер
(°,м/с) 
Видим.   Явления Облачность Т
(°С)
Тd
(°С)
f(%) Тe
(°С)
Pmin
(гПа)
dP
(гПа)
Po
(мм)
O2
(г/м3)
Тmin Tmax R s Состояние
почвы
06 23.04.17 320 (СЗ) 20000 м    9/0 средняя 
[Ac trans]
+6.4 +3 79 +6  1009.7  0.3  741  291  +4.3         
09 23.04.17 350 (С) 20000 м    9/3 600 м средняя 
[Sc diur, vesp|Ac trans]
+9.2 +1.1 57 +8  1009.5  741  288           
12 23.04.17 320 (СЗ) 20000 м    10/1 1000 м средняя 
[Cu hum|Ac As]
+9.9 -2.5 42 +9  1008.9  -0.5  740  288           
15 23.04.17 300 (СЗ) 20000 м    10/3 1000 м средняя 
[Cu hum|Ac trans]
+10.1 -1.2 45 +10  1009.5  -0.6  741  288           
18 23.04.17 280 (З) 20000 м    9/3 600 м средняя, верхняя 
[Sc|Ac trans|Ci fib]
+6.4 -1 59 +6  1011.2  1.4  742  292    +9.9       
21 23.04.17 300 (СЗ) 20000 м    ясно 
+3.7 -1.6 68 +3  1012.4  0.9  742  295           
00 24.04.17 300 (СЗ) 20000 м    ясно 
+1.5 -1.3 82 +1  1013.3  0.7  743  298           
03 24.04.17 310 (СЗ) 20000 м    8/0 средняя 
[Ac trans]
+1.3 -0.7 86 +1  1014.5  1.2  744  298           
06 24.04.17 320 (СЗ) 20000 м    8/8 600 м 
[Sc]
+5 +0.6 73 +4  1015.8  1.6  745  295  +0.7         
09 24.04.17 310 (СЗ) 20000 м    8/8 600 м кучево-дожд. 
[Cb calv]
+9 -0.7 51 +8  1016  0.5  745  291           
12 24.04.17 300 (СЗ) 20000 м    6/6 600 м кучево-дожд. 
[Cb calv]
+11.8 -7.8 25 +11  1015.5  -0.3  745  289           
15 24.04.17 300 (СЗ) 20000 м    6/3 600 м кучево-дожд., верхняя 
[Cb calv|Ci ing]
+9.6 +0.4 53 +9  1017.2  1.5  746  290           
18 24.04.17 280 (З) 20000 м    3/1 600 м верхняя 
[Sc diur, vesp|Ci fib]
+5.6 -0.2 66 +5  1019.6  748  295    +12.6       
21 24.04.17 270 (З) 20000 м    ясно 
+3.6 +0.1 78 +2  1021  1.2  749  298           
00 25.04.17 240 (ЮЗ) 20000 м    ясно 
+1.8 -0.7 83 +1  1021.8  0.7  749  300           
03 25.04.17 210 (ЮЗ) 11000 м    1/1 600 м 
[Sc]
+1.4 -0.5 87 +1  1022.4  0.5  750  301           
06 25.04.17 190 (Ю) 20000 м    1/0 верхняя 
[Ci fib]
+7.2 +0.4 62 +6  1022.7  0.8  750  294  +1.3         
09 25.04.17 180 (Ю) 20000 м    6/6 1000 м 
[Cu med, cong]
+13 -1.4 37 +12  1021.7  -0.5  750  289           
12 25.04.17 190 (Ю) 20000 м    4/4 1000 м 
[Cu med, cong]
+15.8 -0.2 34 +15  1019.6  -1.9  748  285           
15 25.04.17 190 (Ю) 20000 м    3/3 1000 м 
[Cu med, cong]
+16.1 -1.9 29 +15  1018.1  -1.4  747  285           
18 25.04.17 180 (Ю) 20000 м    3/0 средняя 
[Ac trans]
+11 +2.7 57 +9  1019.1  0.6  748  289    +16.8       
21 25.04.17 180 (Ю) 20000 м    ясно 
+8.2 +3.8 74 +6  1020.1  0.7  748  292           
00 26.04.17 180 (Ю) 20000 м    ясно 
+6.3 +3.5 82 +4  1020.3  0.1  748  294           
03 26.04.17 160 (Ю) 20000 м    3/0 верхняя 
[Ci]
+5 +1.7 79 +3  1020.5  0.1  749  296           
06 26.04.17 170 (Ю) 20000 м    ясно 
+9.3 +2.1 61 +7  1020.8  0.6  749  292  +5         
Время (UTC), дата Ветер
(°,м/с) 
Видим.   Явления Облачность Т
(°С)
Тd
(°С)
f(%) Тe
(°С)
Pmin
(гПа)
dP
(гПа)
Po
(мм)
O2
(г/м3)
Тmin Tmax R s Состояние
почвы

Для получения пояснительной информации подведите курсор к названию столбца.

ПОГОДА в Любашевке - архив

Всё, что Вы хотите узнать о погоде в Любашевке - удобно и подробно!

Выберите нужную дату (начиная с 1 января 2015* года) и нажмите кнопку "Найти".
Будут отображены архивные сводки погоды по пункту Любашевка, начиная с указанной даты.


Отображать данные в формате CSV (для использования в таблицах Excel)


Внимание! Наш архив погоды предназначен исключительно для личного некоммерческого использования в познавательных целях. Если Вам необходимы официальные справки о состоянии погоды (для производственных, юридических, коммерческих и т.п. целей), обращайтесь в органы Росгидромета.

*Примечание: данная дата относится к архиву по метеостанциям СССР (Россия, СНГ, Балтия).
Архив по метеостанциям Зарубежной Европы и Азии (кроме Китая) хранится 10 дней, по другим регионам земного шара (Китай, Африка, Америка, Австралия, Океания) - 1 день.

Любашевка - район местоположения метеостанции


Название, широта, долгота, высота метеостанции:
Любашевка 47.9°ш. 30.3°д. 183 м над ур. моря [Украина]

Дополнительная информация

В oтличие oт бoльшинства пoгoдных сайтoв мы публикуем пoдрoбную метеoинфoрмацию в детальнoм прoфессиoнальнoм фoрмате.

Характеристики температуры и влажнoсти вoздуха измеряются на высoте 2 м в тени вдали oт зданий и деревьев.
Скoрoсть ветра измеряется на высoте 10 м (на урoвне рoста челoвека скoрoсть ветра ниже в 1.5-2 раза). Если метеoстанция нахoдится в гoрoде или в лесу, тo скoрoсть ветра занижена на 2-4 м/с пo сравнению с oткрытым местoм. Скoрoсть ветра над акватoриями крупных рек и oзёр, а также на вершинах хoлмoв на 2-5 м/с выше, чем в oбычных услoвиях.
Атмoсфернoе давление в разных тoчках местнoсти мoжет значительнo oтличаться oт давления на метеoстанции, в зависимoсти oт услoвий рельефа (при пoдъёме на 10 м давление пoнижается примернo на 1 мм рт.ст.).